Location: Berg
(48.5667°N, 13.9833°E)
Time: 22:01:28
(UTC+00:00)

CARTOSAT-1 - Pass Details

Date: 09 April 2020
Orbit: 616 x 619 km, 97.8° (Epoch: 29 May)

Event Time Altitude Azimuth Distance (km) Brightness Sun altitude
Exits shadow 20:39:34 79° 345° (NNW) 638 3.6 -25.0°
Drops below altitude 10° 20:43:38 10° 347° (NNW) 1,997 7.0 -25.4°
Sets 20:45:50 0° 347° (NNW) 2,909 8.0 -25.7°
